Skip Page Navigation
NASA JPL Caltech
NASA Logo - Jet Propulsion Laboratory + View the NASA Portal
+ Center for Near-Earth Object Studies
JPL Home Earth Solar System Stars & Galaxies Technology
JPL Solar System Dynamics
BODIES ORBITS EPHEMERIDES TOOLS PHYSICAL DATA DISCOVERY FAQ SITE MAP
IMPORTANT: The SSD Announcement email list is now available. Major changes are coming in the near future, including possible hostname and/or URL changes. To be notified of such changes, subscribe to this email list.

Please visit this page for more details.


JPL Small-Body Database Browser
Search: [ help ]  
91598 (1999 TK13)
Classification: Main-belt Asteroid          SPK-ID: 2091598
Ephemeris | Orbit Diagram | Orbital Elements | Mission Design | Physical Parameters | Discovery Circumstances | Close-Approach Data ]

[ show orbit diagram ]
Orbital Elements at Epoch 2459000.5 (2020-May-31.0) TDB
Reference: JPL 19 (heliocentric ecliptic J2000)
 Element Value Uncertainty (1-sigma)   Units 
e .2294917423125936 5.2606e-08  
a 3.072321918321153 2.0778e-08 au
q 2.367249408340462 1.6205e-07 au
i 7.070675111741341 4.8419e-06 deg
node 85.828367646248 4.1059e-05 deg
peri 290.0977618325053 4.1876e-05 deg
M 318.6921454539448 9.812e-06 deg
tp 2459226.198485047508
(2021-Jan-11.69848505)
5.4829e-05 TDB
period 1966.973485067193
5.39
1.9954e-05
5.463e-08
d
yr
n .1830222942673282 1.8567e-09 deg/d
Q 3.777394428301844 2.5547e-08 au
  Orbit Determination Parameters
   # obs. used (total)      822  
   data-arc span      7235 days (19.81 yr)  
   first obs. used      1999-09-13  
   last obs. used      2019-07-05  
   planetary ephem.      DE431  
   SB-pert. ephem.      SB431-N16  
   condition code      0  
   norm. resid. RMS      .53361  
   source      ORB  
   producer      Otto Matic  
   solution date      2020-Feb-23 22:33:56  

Additional Information
 Earth MOID = 1.38044 au 
 Jupiter MOID = 1.73496 au 
 T_jup = 3.178 
[ show covariance matrix ]

Ephemeris | Orbit Diagram | Orbital Elements | Mission Design | Physical Parameters | Discovery Circumstances | Close-Approach Data ]

Physical Parameter Table
Parameter Symbol Value Units Sigma Reference Notes
absolute magnitude H 14.3   n/a MPO359384  
diameter diameter 7.203 km 2.345 urn:nasa:pds:neowise_diameters_albedos::2.0[mainbelt] (http://adsabs.harvard.edu/abs/2017AJ....154..168M)  
geometric albedo albedo 0.089   0.066 urn:nasa:pds:neowise_diameters_albedos::2.0[mainbelt] (http://adsabs.harvard.edu/abs/2017AJ....154..168M)  

91598 (1999 TK13)          Discovered 1999-Oct-11 by Linderholm, R. at Lime Creek
Reference: 20041028/Numbers.arcLast Updated: 2004-10-29

[ show close-approach data ]
Ephemeris | Orbit Diagram | Orbital Elements | Mission Design | Physical Parameters | Discovery Circumstances | Close-Approach Data ]
ABOUT SSD CREDITS/AWARDS PRIVACY/COPYRIGHT GLOSSARY LINKS
FirstGov 2020-Mar-28 19:25 UT
(server date/time)  
NASA Home Page
Site Manager:   Ryan S. Park
Webmaster  Alan B. Chamberlin